• în Republica Moldova
  • Lista ţărilor
  • Pe 7 zile
  • Temperatura apei
  • Hartă satelitară
  • Meteo pe hartă
  • Widget-uri
  • user-avatar
    Intrare

    Meteo pe oră la Uige

    Astăzi, 24 Februarie, Sâmbătă

    Timp Temperatura Precipitaţii Vânt Presiune Umiditate
    00:00 +19°C° 0 mm 0 m/s 690 mmHg 94%
    01:00 +19°C° 0 mm 0 m/s 690 mmHg 95%
    02:00 +19°C° 0 mm 0 m/s 690 mmHg 95%
    03:00 +18°C° 0 mm 0 m/s 690 mmHg 95%
    04:00 +18°C° 0 mm 0 m/s 689 mmHg 96%
    05:00 +19°C° 0 mm 0 m/s 690 mmHg 94%
    06:00 +19°C° 0 mm 0 m/s 690 mmHg 93%
    07:00 +20°C° 0 mm 0 m/s 690 mmHg 89%
    08:00 +24°C° 0 mm 1 m/s 691 mmHg 82%
    09:00 +26°C° 0 mm 1 m/s 691 mmHg 75%
    10:00 +28°C° 0 mm 1 m/s 691 mmHg 68%
    11:00 +29°C° 0 mm 1 m/s 691 mmHg 64%
    12:00 +31°C° 0 mm 1 m/s 690 mmHg 59%
    13:00 +32°C° 0 mm 1 m/s 690 mmHg 56%
    14:00 +31°C° 1,8 mm 1 m/s 690 mmHg 63%
    15:00 +30°C° 1,8 mm 1 m/s 689 mmHg 71%
    16:00 +29°C° 1,8 mm 1 m/s 688 mmHg 79%
    17:00 +27°C° 1,3 mm 1 m/s 689 mmHg 84%
    18:00 +25°C° 1,3 mm 1 m/s 689 mmHg 89%
    19:00 +23°C° 1,3 mm 1 m/s 689 mmHg 94%
    20:00 +23°C° 0,5 mm 1 m/s 689 mmHg 95%
    21:00 +23°C° 0,5 mm 1 m/s 690 mmHg 96%
    22:00 +20°C° 0,5 mm 0 m/s 690 mmHg 97%
    23:00 +20°C° 1,8 mm 0 m/s 690 mmHg 97%

    Mâine, 25 Februarie, Duminică

    Timp Temperatura Precipitaţii Vânt Presiune Umiditate
    00:00 +20°C° 1,8 mm 0 m/s 690 mmHg 97%
    01:00 +20°C° 1,8 mm 0 m/s 690 mmHg 97%
    02:00 +20°C° 0,5 mm 0 m/s 690 mmHg 97%
    03:00 +20°C° 0,5 mm 0 m/s 690 mmHg 97%
    04:00 +20°C° 0,5 mm 0 m/s 690 mmHg 97%
    05:00 +20°C° 0,2 mm 0 m/s 690 mmHg 97%
    06:00 +20°C° 0,2 mm 0 m/s 691 mmHg 96%
    07:00 +20°C° 0,2 mm 0 m/s 691 mmHg 96%
    08:00 +21°C° 0,4 mm 0 m/s 691 mmHg 94%
    09:00 +24°C° 0,4 mm 1 m/s 691 mmHg 92%
    10:00 +25°C° 0,4 mm 1 m/s 692 mmHg 90%
    11:00 +26°C° 0,3 mm 1 m/s 691 mmHg 83%
    12:00 +27°C° 0,3 mm 1 m/s 691 mmHg 77%
    13:00 +28°C° 0,3 mm 2 m/s 691 mmHg 70%
    14:00 +28°C° 0,8 mm 2 m/s 690 mmHg 74%
    15:00 +27°C° 0,8 mm 2 m/s 690 mmHg 79%
    16:00 +27°C° 0,8 mm 2 m/s 689 mmHg 84%
    17:00 +26°C° 0,6 mm 2 m/s 690 mmHg 88%
    18:00 +24°C° 0,6 mm 2 m/s 690 mmHg 92%
    19:00 +23°C° 0,6 mm 1 m/s 690 mmHg 96%
    20:00 +23°C° 0,7 mm 1 m/s 690 mmHg 97%
    21:00 +22°C° 0,7 mm 1 m/s 691 mmHg 97%
    22:00 +22°C° 0,7 mm 1 m/s 691 mmHg 97%
    23:00 +22°C° 0 mm 1 m/s 691 mmHg 97%

    Poimâine, 26 Februarie, Luni

    Timp Temperatura Precipitaţii Vânt Presiune Umiditate
    00:00 +22°C° 0 mm 1 m/s 691 mmHg 98%
    01:00 +21°C° 0 mm 1 m/s 691 mmHg 98%
    02:00 +21°C° 0 mm 1 m/s 690 mmHg 98%
    03:00 +21°C° 0 mm 1 m/s 690 mmHg 98%
    04:00 +21°C° 0 mm 1 m/s 689 mmHg 98%
    05:00 +21°C° 0 mm 1 m/s 690 mmHg 97%
    06:00 +21°C° 0 mm 1 m/s 690 mmHg 96%
    07:00 +21°C° 0 mm 1 m/s 691 mmHg 96%
    08:00 +23°C° 0 mm 2 m/s 691 mmHg 86%
    09:00 +25°C° 0 mm 2 m/s 692 mmHg 77%
    10:00 +27°C° 0 mm 2 m/s 692 mmHg 68%
    11:00 +28°C° 0 mm 2 m/s 692 mmHg 65%
    12:00 +29°C° 0 mm 3 m/s 691 mmHg 61%
    13:00 +30°C° 0 mm 3 m/s 691 mmHg 58%
    14:00 +29°C° 0,9 mm 3 m/s 690 mmHg 67%
    15:00 +28°C° 0,9 mm 3 m/s 689 mmHg 76%
    16:00 +27°C° 0,9 mm 3 m/s 689 mmHg 85%
    17:00 +25°C° 0,5 mm 2 m/s 689 mmHg 89%
    18:00 +24°C° 0,5 mm 2 m/s 689 mmHg 93%
    19:00 +22°C° 0,5 mm 1 m/s 690 mmHg 97%
    20:00 +22°C° 0 mm 1 m/s 690 mmHg 97%
    21:00 +22°C° 0 mm 1 m/s 691 mmHg 98%
    22:00 +22°C° 0 mm 1 m/s 691 mmHg 98%
    23:00 +21°C° 0 mm 1 m/s 691 mmHg 98%

    27 Februarie, Marţi

    Timp Temperatura Precipitaţii Vânt Presiune Umiditate
    00:00 +21°C° 0 mm 1 m/s 691 mmHg 98%
    01:00 +21°C° 0 mm 1 m/s 690 mmHg 99%
    02:00 +21°C° 0 mm 1 m/s 690 mmHg 98%
    03:00 +21°C° 0 mm 1 m/s 689 mmHg 98%
    04:00 +20°C° 0 mm 2 m/s 689 mmHg 98%
    05:00 +21°C° 0 mm 1 m/s 690 mmHg 97%
    06:00 +21°C° 0 mm 1 m/s 690 mmHg 97%
    07:00 +21°C° 0 mm 1 m/s 691 mmHg 96%
    08:00 +23°C° 0 mm 2 m/s 691 mmHg 91%
    09:00 +24°C° 0 mm 2 m/s 692 mmHg 85%
    10:00 +25°C° 0 mm 2 m/s 692 mmHg 79%
    11:00 +27°C° 0,1 mm 2 m/s 691 mmHg 73%
    12:00 +28°C° 0,1 mm 2 m/s 691 mmHg 67%
    13:00 +29°C° 0,1 mm 2 m/s 690 mmHg 61%
    14:00 +29°C° 0,8 mm 2 m/s 690 mmHg 69%
    15:00 +28°C° 0,8 mm 2 m/s 689 mmHg 76%
    16:00 +27°C° 0,8 mm 2 m/s 688 mmHg 84%
    17:00 +26°C° 1,2 mm 2 m/s 689 mmHg 88%
    18:00 +24°C° 1,2 mm 2 m/s 689 mmHg 92%
    19:00 +23°C° 1,2 mm 2 m/s 690 mmHg 96%
    20:00 +23°C° 1,4 mm 2 m/s 690 mmHg 96%
    21:00 +21°C° 1,4 mm 2 m/s 691 mmHg 97%
    22:00 +21°C° 1,4 mm 2 m/s 692 mmHg 97%
    23:00 +21°C° 0,8 mm 2 m/s 692 mmHg 98%

    28 Februarie, Miercuri

    Timp Temperatura Precipitaţii Vânt Presiune Umiditate
    00:00 +21°C° 0,8 mm 2 m/s 691 mmHg 98%
    01:00 +21°C° 0,8 mm 2 m/s 691 mmHg 98%
    02:00 +21°C° 0,8 mm 2 m/s 691 mmHg 98%
    03:00 +20°C° 0,8 mm 2 m/s 690 mmHg 98%
    04:00 +21°C° 0,8 mm 1 m/s 690 mmHg 98%
    05:00 +21°C° 0,6 mm 1 m/s 691 mmHg 98%
    06:00 +21°C° 0,6 mm 1 m/s 691 mmHg 98%
    07:00 +21°C° 0,6 mm 1 m/s 692 mmHg 98%
    08:00 +22°C° 0,3 mm 1 m/s 692 mmHg 96%
    09:00 +23°C° 0,3 mm 1 m/s 692 mmHg 94%
    10:00 +23°C° 0,3 mm 1 m/s 693 mmHg 92%
    11:00 +24°C° 0,3 mm 1 m/s 692 mmHg 89%
    12:00 +25°C° 0,3 mm 1 m/s 691 mmHg 87%
    13:00 +25°C° 0,3 mm 1 m/s 691 mmHg 84%
    14:00 +25°C° 0,7 mm 1 m/s 690 mmHg 87%
    15:00 +24°C° 0,7 mm 1 m/s 690 mmHg 90%
    16:00 +24°C° 0,7 mm 1 m/s 689 mmHg 93%
    17:00 +23°C° 0,3 mm 1 m/s 690 mmHg 95%
    18:00 +23°C° 0,3 mm 1 m/s 690 mmHg 96%
    19:00 +22°C° 0,3 mm 1 m/s 691 mmHg 97%
    20:00 +22°C° 0,5 mm 1 m/s 691 mmHg 97%
    21:00 +22°C° 0,5 mm 1 m/s 692 mmHg 98%
    22:00 +22°C° 0,5 mm 1 m/s 692 mmHg 98%
    23:00 +22°C° 0,6 mm 1 m/s 692 mmHg 98%

    1 Martie, Joi

    Timp Temperatura Precipitaţii Vânt Presiune Umiditate
    00:00 +22°C° 0,6 mm 1 m/s 692 mmHg 97%
    01:00 +20°C° 0,6 mm 2 m/s 691 mmHg 97%
    02:00 +20°C° 0,5 mm 2 m/s 691 mmHg 97%
    03:00 +20°C° 0,5 mm 2 m/s 691 mmHg 96%
    04:00 +19°C° 0,5 mm 2 m/s 690 mmHg 96%
    05:00 +19°C° 0,3 mm 2 m/s 691 mmHg 96%
    06:00 +19°C° 0,3 mm 2 m/s 691 mmHg 95%
    07:00 +19°C° 0,3 mm 2 m/s 691 mmHg 95%
    08:00 +20°C° 0,3 mm 1 m/s 691 mmHg 93%
    09:00 +21°C° 0,3 mm 1 m/s 692 mmHg 91%
    10:00 +22°C° 0,3 mm 1 m/s 692 mmHg 90%
    11:00 +23°C° 0,1 mm 1 m/s 692 mmHg 86%
    12:00 +24°C° 0,1 mm 1 m/s 691 mmHg 81%
    13:00 +25°C° 0,1 mm 1 m/s 691 mmHg 77%
    14:00 +26°C° 0 mm 1 m/s 691 mmHg 74%
    15:00 +27°C° 0 mm 1 m/s 690 mmHg 71%
    16:00 +27°C° 0 mm 1 m/s 690 mmHg 67%
    17:00 +26°C° 0 mm 1 m/s 690 mmHg 73%
    18:00 +24°C° 0 mm 1 m/s 690 mmHg 79%
    19:00 +22°C° 0 mm 1 m/s 690 mmHg 85%
    20:00 +22°C° 0 mm 1 m/s 690 mmHg 85%
    21:00 +22°C° 0 mm 1 m/s 691 mmHg 84%
    22:00 +21°C° 0 mm 1 m/s 691 mmHg 84%
    23:00 +21°C° 0 mm 1 m/s 690 mmHg 87%
    Arată mai mult